QPF
0.00 0.00 0.00 0.00 0.00 0.00 0.00 0.00 0.00 0.00 0.00 0.01 0.01 0.01 0.00 0.00 0.00 0.00 0.00 0.00 0.00 0.01 0.01 0.02 0.03 0.05 0.05 0.04 0.02 0.01 0.00 0.00 0.00 0.00 0.00 0.00 0.00 0.00 0.00 0.00 0.00 0.00 0.00
0.00 0.00 0.00 0.00 0.00 0.00 0.00 0.00 0.00 0.00 0.00 0.01 0.01 0.01 0.01 0.00 0.00 0.00 0.00 0.00 0.00 0.00 0.01 0.03 0.05 0.06 0.06 0.04 0.03 0.01 0.00 0.00 0.00 0.00 0.00 0.00 0.00 0.00 0.00 0.00 0.00 0.00 0.00
0.00 0.00 0.00 0.00 0.00 0.00 0.00 0.00 0.00 0.00 0.00 0.00 0.01 0.01 0.01 0.00 0.00 0.00 0.00 0.00 0.00 0.00 0.01 0.03 0.04 0.05 0.05 0.03 0.02 0.01 0.00 0.00 0.00 0.00 0.00 0.00 0.00 0.00 0.00 0.00 0.00 0.00 0.00
0.00 0.00 0.00 0.00 0.00 0.00 0.00 0.00 0.00 0.00 0.00 0.00 0.01 0.01 0.01 0.00 0.00 0.00 0.00 0.00 0.00 0.00 0.01 0.01 0.02 0.02 0.01 0.01 0.00 0.00 0.00 0.00 0.00 0.00 0.00 0.00 0.00 0.00 0.00 0.00 0.00 0.00 0.00
0.00 0.00 0.00 0.00 0.00 0.00 0.00 0.00 0.00 0.00 0.00 0.00 0.00 0.00 0.00 0.00 0.00 0.00 0.00 0.00 0.00 0.00 0.00 0.00 0.00 0.00 0.00 0.00 0.00 0.00 0.00 0.00 0.00 0.00 0.00 0.00 0.00 0.00 0.00 0.00 0.00 0.00 0.01
0.00 0.00 0.00 0.00 0.00 0.00 0.00 0.00 0.00 0.00 0.00 0.00 0.00 0.00 0.00 0.00 0.00 0.00 0.00 0.00 0.00 0.00 0.00 0.00 0.00 0.00 0.00 0.00 0.00 0.00 0.00 0.00 0.00 0.00 0.00 0.00 0.00 0.00 0.00 0.00 0.00 0.00 0.00
0.00 0.00 0.00 0.00 0.00 0.00 0.00 0.00 0.00 0.00 0.00 0.00 0.00 0.00 0.00 0.00 0.01 0.01 0.00 0.00 0.00 0.00 0.00 0.00 0.00 0.00 0.00 0.00 0.00 0.00 0.00 0.00 0.00 0.00 0.00 0.00 0.00 0.00 0.00 0.01 0.01 0.01 0.01
0.00 0.00 0.00 0.00 0.00 0.00 0.00 0.00 0.00 0.00 0.00 0.00 0.00 0.00 0.00 0.00 0.01 0.01 0.00 0.00 0.00 0.00 0.00 0.00 0.00 0.00 0.00 0.00 0.00 0.00 0.00 0.00 0.00 0.00 0.00 0.00 0.00 0.00 0.00 0.01 0.01 0.01 0.02
0.00 0.00 0.00 0.00 0.00 0.01 0.01 0.00 0.00 0.00 0.00 0.00 0.00 0.00 0.00 0.00 0.00 0.01 0.00 0.00 0.00 0.00 0.00 0.00 0.00 0.00 0.00 0.00 0.00 0.00 0.00 0.00 0.00 0.00 0.00 0.00 0.00 0.00 0.01 0.01 0.01 0.01 0.02
0.00 0.00 0.00 0.00 0.00 0.01 0.01 0.00 0.00 0.00 0.00 0.00 0.00 0.00 0.00 0.00 0.00 0.00 0.00 0.00 0.00 0.00 0.00 0.00 0.00 0.00 0.00 0.00 0.00 0.00 0.00 0.00 0.00 0.00 0.00 0.00 0.00 0.00 0.00 0.00 0.00 0.01 0.01
0.00 0.00 0.00 0.00 0.00 0.01 0.01 0.00 0.00 0.00 0.00 0.00 0.00 0.00 0.00 0.00 0.00 0.00 0.00 0.00 0.00 0.00 0.00 0.00 0.00 0.00 0.00 0.00 0.00 0.00 0.00 0.00 0.00 0.00 0.00 0.00 0.00 0.00 0.00 0.00 0.00 0.00 0.00
0.00 0.00 0.00 0.00 0.00 0.01 0.01 0.01 0.01 0.00 0.00 0.00 0.00 0.00 0.00 0.00 0.00 0.00 0.00 0.00 0.00 0.00 0.00 0.00 0.00 0.00 0.00 0.00 0.00 0.00 0.00 0.00 0.00 0.00 0.00 0.00 0.00 0.00 0.00 0.00 0.00 0.00 0.00
0.00 0.00 0.00 0.00 0.00 0.00 0.00 0.00 0.01 0.01 0.01 0.00 0.00 0.00 0.00 0.00 0.00 0.00 0.00 0.00 0.00 0.00 0.00 0.00 0.00 0.00 0.00 0.00 0.00 0.00 0.00 0.00 0.00 0.00 0.00 0.00 0.00 0.00 0.00 0.00 0.00 0.00 0.00
0.00 0.00 0.00 0.00 0.00 0.00 0.00 0.00 0.01 0.01 0.01 0.00 0.00 0.00 0.00 0.00 0.00 0.00 0.00 0.00 0.00 0.00 0.00 0.00 0.00 0.00 0.00 0.00 0.00 0.00 0.00 0.00 0.00 0.00 0.00 0.00 0.00 0.00 0.00 0.00 0.00 0.00 0.00
0.00 0.00 0.00 0.00 0.00 0.00 0.00 0.00 0.00 0.00 0.00 0.00 0.00 0.00 0.00 0.00 0.00 0.00 0.00 0.00 0.00 0.00 0.00 0.00 0.00 0.00 0.00 0.00 0.00 0.00 0.00 0.00 0.00 0.00 0.00 0.00 0.00 0.00 0.00 0.00 0.00 0.00 0.00
0.00 0.00 0.00 0.00 0.00 0.00 0.00 0.00 0.00 0.00 0.00 0.00 0.00 0.00 0.00 0.00 0.00 0.00 0.00 0.00 0.00 0.00 0.00 0.00 0.00 0.00 0.00 0.00 0.00 0.00 0.00 0.00 0.00 0.00 0.00 0.00 0.00 0.00 0.00 0.00 0.00 0.00 0.00
0.00 0.00 0.00 0.00 0.00 0.00 0.00 0.01 0.00 0.00 0.00 0.00 0.00 0.00 0.00 0.00 0.00 0.00 0.00 0.00 0.00 0.00 0.00 0.00 0.00 0.00 0.00 0.00 0.00 0.00 0.00 0.00 0.00 0.00 0.00 0.00 0.00 0.00 0.00 0.00 0.00 0.00 0.00
0.00 0.00 0.00 0.00 0.00 0.00 0.00 0.00 0.00 0.00 0.00 0.00 0.01 0.01 0.01 0.00 0.01 0.01 0.00 0.00 0.00 0.00 0.00 0.00 0.00 0.00 0.00 0.00 0.00 0.00 0.00 0.00 0.00 0.00 0.00 0.00 0.00 0.00 0.00 0.00 0.00 0.00 0.00
0.00 0.00 0.00 0.00 0.00 0.00 0.00 0.01 0.01 0.00 0.00 0.01 0.01 0.02 0.01 0.01 0.01 0.01 0.01 0.00 0.00 0.00 0.00 0.00 0.00 0.00 0.00 0.00 0.00 0.00 0.00 0.00 0.00 0.00 0.00 0.00 0.00 0.00 0.00 0.00 0.00 0.00 0.00
0.00 0.00 0.00 0.00 0.00 0.00 0.00 0.01 0.01 0.01 0.01 0.01 0.02 0.02 0.02 0.03 0.03 0.02 0.01 0.00 0.00 0.00 0.00 0.00 0.00 0.00 0.00 0.00 0.00 0.00 0.00 0.00 0.00 0.00 0.00 0.00 0.00 0.00 0.00 0.00 0.00 0.00 0.00
0.00 0.00 0.00 0.00 0.00 0.00 0.00 0.00 0.00 0.01 0.01 0.02 0.02 0.02 0.03 0.04 0.04 0.04 0.02 0.01 0.00 0.00 0.00 0.00 0.00 0.00 0.00 0.00 0.00 0.00 0.00 0.00 0.00 0.00 0.00 0.00 0.00 0.00 0.00 0.00 0.00 0.00 0.00
0.00 0.00 0.00 0.00 0.00 0.00 0.00 0.00 0.00 0.00 0.01 0.01 0.02 0.02 0.04 0.05 0.05 0.04 0.02 0.01 0.00 0.00 0.00 0.00 0.00 0.00 0.00 0.00 0.00 0.00 0.00 0.00 0.00 0.00 0.00 0.00 0.00 0.00 0.00 0.00 0.00 0.00 0.00
0.00 0.00 0.00 0.00 0.00 0.00 0.00 0.00 0.00 0.00 0.01 0.01 0.02 0.03 0.05 0.06 0.06 0.06 0.04 0.02 0.01 0.00 0.00 0.00 0.00 0.00 0.00 0.00 0.00 0.00 0.00 0.00 0.00 0.00 0.00 0.00 0.00 0.00 0.00 0.00 0.00 0.00 0.00
0.00 0.00 0.00 0.00 0.00 0.00 0.00 0.00 0.00 0.00 0.00 0.01 0.02 0.04 0.05 0.05 0.05 0.05 0.05 0.03 0.02 0.01 0.00 0.00 0.00 0.00 0.00 0.00 0.00 0.00 0.00 0.00 0.00 0.00 0.00 0.00 0.00 0.00 0.00 0.00 0.00 0.00 0.00
0.00 0.00 0.00 0.00 0.00 0.00 0.00 0.00 0.00 0.00 0.00 0.01 0.02 0.03 0.04 0.04 0.03 0.03 0.03 0.02 0.01 0.01 0.01 0.01 0.00 0.00 0.00 0.00 0.00 0.00 0.00 0.00 0.00 0.00 0.00 0.00 0.00 0.00 0.00 0.00 0.00 0.00 0.00
0.00 0.00 0.00 0.00 0.00 0.00 0.00 0.00 0.00 0.00 0.00 0.01 0.02 0.03 0.04 0.04 0.04 0.03 0.02 0.01 0.01 0.00 0.00 0.00 0.00 0.00 0.00 0.00 0.00 0.00 0.00 0.00 0.00 0.00 0.00 0.00 0.00 0.00 0.00 0.00 0.00 0.00 0.00
MSLP
1009.80 1009.94 1010.16 1010.46 1010.83 1011.25 1011.68 1012.08 1012.42 1012.70 1012.93 1013.14 1013.36 1013.61 1013.90 1014.22 1014.53 1014.80 1014.99 1015.10 1015.13 1015.11 1015.09 1015.10 1015.19 1015.36 1015.61 1015.90 1016.19 1016.46 1016.65 1016.78 1016.85 1016.86 1016.86 1016.86 1016.87 1016.89 1016.90 1016.90 1016.87 1016.82 1016.76
1009.61 1009.82 1010.12 1010.52 1010.98 1011.47 1011.94 1012.35 1012.69 1012.96 1013.18 1013.39 1013.62 1013.90 1014.23 1014.58 1014.90 1015.17 1015.34 1015.41 1015.39 1015.33 1015.28 1015.28 1015.36 1015.54 1015.79 1016.09 1016.38 1016.62 1016.80 1016.90 1016.94 1016.94 1016.92 1016.92 1016.92 1016.94 1016.96 1016.95 1016.93 1016.87 1016.81
1009.37 1009.66 1010.06 1010.55 1011.11 1011.67 1012.18 1012.62 1012.96 1013.21 1013.42 1013.63 1013.87 1014.17 1014.52 1014.88 1015.21 1015.48 1015.63 1015.68 1015.64 1015.56 1015.49 1015.48 1015.57 1015.74 1015.99 1016.28 1016.54 1016.75 1016.89 1016.95 1016.96 1016.93 1016.90 1016.89 1016.90 1016.92 1016.94 1016.95 1016.93 1016.89 1016.83
1009.11 1009.48 1009.98 1010.58 1011.22 1011.85 1012.41 1012.86 1013.20 1013.44 1013.63 1013.82 1014.06 1014.37 1014.72 1015.09 1015.43 1015.69 1015.84 1015.88 1015.84 1015.77 1015.71 1015.71 1015.81 1015.98 1016.22 1016.48 1016.70 1016.87 1016.95 1016.97 1016.93 1016.88 1016.83 1016.81 1016.82 1016.85 1016.88 1016.90 1016.89 1016.86 1016.82
1008.86 1009.32 1009.92 1010.61 1011.33 1012.02 1012.61 1013.06 1013.39 1013.61 1013.78 1013.96 1014.19 1014.48 1014.84 1015.20 1015.54 1015.80 1015.96 1016.02 1016.00 1015.95 1015.92 1015.96 1016.07 1016.25 1016.47 1016.69 1016.87 1016.98 1017.01 1016.97 1016.90 1016.81 1016.75 1016.72 1016.73 1016.76 1016.79 1016.82 1016.82 1016.81 1016.78
1008.68 1009.21 1009.88 1010.65 1011.43 1012.15 1012.75 1013.21 1013.52 1013.72 1013.87 1014.04 1014.25 1014.54 1014.88 1015.24 1015.57 1015.84 1016.01 1016.09 1016.11 1016.11 1016.13 1016.20 1016.33 1016.51 1016.71 1016.89 1017.02 1017.07 1017.05 1016.97 1016.86 1016.76 1016.68 1016.65 1016.66 1016.68 1016.72 1016.74 1016.75 1016.74 1016.73
1008.59 1009.17 1009.89 1010.69 1011.50 1012.24 1012.84 1013.29 1013.58 1013.77 1013.91 1014.07 1014.27 1014.55 1014.88 1015.24 1015.57 1015.84 1016.03 1016.14 1016.20 1016.24 1016.31 1016.41 1016.56 1016.75 1016.92 1017.06 1017.14 1017.14 1017.07 1016.96 1016.83 1016.72 1016.65 1016.62 1016.63 1016.66 1016.69 1016.71 1016.71 1016.70 1016.70
1008.59 1009.19 1009.93 1010.74 1011.54 1012.26 1012.85 1013.28 1013.57 1013.76 1013.91 1014.07 1014.28 1014.56 1014.89 1015.24 1015.56 1015.83 1016.03 1016.17 1016.26 1016.35 1016.45 1016.58 1016.74 1016.92 1017.07 1017.17 1017.20 1017.16 1017.07 1016.94 1016.81 1016.72 1016.67 1016.66 1016.68 1016.71 1016.74 1016.75 1016.74 1016.72 1016.71
1008.65 1009.24 1009.96 1010.75 1011.52 1012.21 1012.77 1013.19 1013.48 1013.69 1013.86 1014.05 1014.29 1014.59 1014.92 1015.27 1015.58 1015.84 1016.04 1016.19 1016.30 1016.41 1016.54 1016.69 1016.85 1017.01 1017.13 1017.20 1017.20 1017.14 1017.03 1016.91 1016.81 1016.75 1016.73 1016.76 1016.80 1016.85 1016.88 1016.88 1016.86 1016.82 1016.80
1008.72 1009.28 1009.96 1010.69 1011.41 1012.05 1012.58 1012.99 1013.30 1013.54 1013.76 1014.01 1014.29 1014.62 1014.97 1015.31 1015.61 1015.86 1016.05 1016.19 1016.31 1016.43 1016.57 1016.72 1016.88 1017.02 1017.12 1017.16 1017.14 1017.07 1016.97 1016.88 1016.82 1016.81 1016.85 1016.92 1017.01 1017.08 1017.12 1017.11 1017.08 1017.03 1016.98
1008.75 1009.27 1009.89 1010.55 1011.20 1011.79 1012.28 1012.69 1013.02 1013.31 1013.60 1013.91 1014.25 1014.62 1014.98 1015.33 1015.62 1015.85 1016.03 1016.16 1016.28 1016.40 1016.53 1016.68 1016.84 1016.97 1017.05 1017.08 1017.06 1016.99 1016.92 1016.87 1016.86 1016.91 1017.02 1017.15 1017.28 1017.39 1017.44 1017.44 1017.40 1017.33 1017.26
1008.70 1009.16 1009.71 1010.30 1010.87 1011.40 1011.87 1012.27 1012.63 1012.98 1013.33 1013.71 1014.11 1014.53 1014.92 1015.27 1015.56 1015.78 1015.94 1016.07 1016.18 1016.31 1016.45 1016.61 1016.76 1016.89 1016.98 1017.00 1016.99 1016.94 1016.90 1016.89 1016.94 1017.06 1017.22 1017.42 1017.60 1017.75 1017.83 1017.84 1017.79 1017.71 1017.62
1008.53 1008.94 1009.41 1009.93 1010.43 1010.91 1011.35 1011.75 1012.14 1012.54 1012.95 1013.40 1013.85 1014.31 1014.72 1015.09 1015.38 1015.60 1015.77 1015.91 1016.04 1016.18 1016.35 1016.52 1016.69 1016.84 1016.93 1016.98 1016.98 1016.96 1016.95 1016.98 1017.08 1017.25 1017.47 1017.71 1017.94 1018.13 1018.24 1018.27 1018.23 1018.14 1018.03
1008.24 1008.59 1009.00 1009.45 1009.90 1010.33 1010.75 1011.15 1011.57 1012.00 1012.47 1012.96 1013.46 1013.94 1014.38 1014.76 1015.07 1015.32 1015.52 1015.69 1015.86 1016.05 1016.25 1016.47 1016.67 1016.85 1016.97 1017.03 1017.06 1017.06 1017.08 1017.14 1017.27 1017.47 1017.72 1018.00 1018.27 1018.49 1018.63 1018.69 1018.66 1018.57 1018.45
1007.84 1008.14 1008.50 1008.90 1009.30 1009.70 1010.11 1010.52 1010.95 1011.41 1011.91 1012.43 1012.95 1013.45 1013.92 1014.32 1014.67 1014.95 1015.20 1015.44 1015.68 1015.94 1016.21 1016.48 1016.73 1016.95 1017.10 1017.19 1017.24 1017.26 1017.29 1017.37 1017.50 1017.71 1017.97 1018.26 1018.55 1018.79 1018.96 1019.05 1019.04 1018.96 1018.83
1007.36 1007.62 1007.94 1008.30 1008.68 1009.07 1009.47 1009.90 1010.35 1010.82 1011.33 1011.86 1012.39 1012.90 1013.38 1013.82 1014.21 1014.56 1014.89 1015.22 1015.55 1015.89 1016.24 1016.58 1016.89 1017.14 1017.32 1017.44 1017.50 1017.53 1017.56 1017.63 1017.75 1017.94 1018.18 1018.47 1018.75 1019.01 1019.20 1019.31 1019.33 1019.27 1019.15
1006.85 1007.07 1007.36 1007.69 1008.06 1008.46 1008.88 1009.33 1009.80 1010.30 1010.81 1011.34 1011.86 1012.38 1012.87 1013.34 1013.78 1014.21 1014.63 1015.06 1015.49 1015.93 1016.36 1016.76 1017.12 1017.41 1017.61 1017.74 1017.80 1017.83 1017.85 1017.90 1017.99 1018.14 1018.35 1018.60 1018.87 1019.11 1019.32 1019.45 1019.51 1019.48 1019.37
1006.34 1006.52 1006.77 1007.08 1007.46 1007.89 1008.35 1008.85 1009.36 1009.88 1010.41 1010.93 1011.45 1011.96 1012.46 1012.96 1013.46 1013.96 1014.48 1015.00 1015.53 1016.06 1016.55 1017.01 1017.40 1017.70 1017.91 1018.05 1018.11 1018.12 1018.13 1018.14 1018.20 1018.31 1018.47 1018.67 1018.90 1019.13 1019.33 1019.48 1019.56 1019.56 1019.49
1005.84 1005.96 1006.18 1006.49 1006.89 1007.37 1007.90 1008.46 1009.03 1009.60 1010.15 1010.69 1011.20 1011.71 1012.22 1012.74 1013.28 1013.85 1014.44 1015.05 1015.66 1016.25 1016.79 1017.27 1017.67 1017.98 1018.19 1018.32 1018.37 1018.38 1018.37 1018.36 1018.38 1018.44 1018.55 1018.70 1018.88 1019.07 1019.25 1019.41 1019.51 1019.54 1019.51
1005.36 1005.41 1005.59 1005.90 1006.34 1006.88 1007.50 1008.16 1008.82 1009.46 1010.06 1010.61 1011.13 1011.64 1012.15 1012.68 1013.25 1013.87 1014.52 1015.19 1015.84 1016.47 1017.04 1017.52 1017.92 1018.21 1018.41 1018.53 1018.58 1018.59 1018.57 1018.56 1018.55 1018.58 1018.64 1018.73 1018.85 1018.99 1019.13 1019.27 1019.37 1019.43 1019.43
1004.87 1004.86 1005.00 1005.31 1005.79 1006.41 1007.13 1007.91 1008.68 1009.42 1010.08 1010.68 1011.21 1011.72 1012.23 1012.77 1013.36 1013.99 1014.67 1015.37 1016.05 1016.68 1017.25 1017.72 1018.10 1018.37 1018.56 1018.68 1018.74 1018.76 1018.77 1018.76 1018.75 1018.75 1018.76 1018.80 1018.85 1018.92 1019.01 1019.11 1019.20 1019.26 1019.29
1004.38 1004.30 1004.39 1004.70 1005.22 1005.92 1006.76 1007.67 1008.58 1009.42 1010.18 1010.83 1011.40 1011.91 1012.42 1012.95 1013.53 1014.17 1014.85 1015.55 1016.23 1016.85 1017.40 1017.85 1018.21 1018.47 1018.65 1018.78 1018.87 1018.93 1018.97 1018.99 1019.00 1018.99 1018.97 1018.95 1018.93 1018.93 1018.94 1018.97 1019.02 1019.06 1019.09
1003.88 1003.73 1003.78 1004.08 1004.64 1005.42 1006.38 1007.42 1008.46 1009.43 1010.28 1011.00 1011.61 1012.14 1012.64 1013.16 1013.73 1014.35 1015.02 1015.70 1016.36 1016.97 1017.49 1017.93 1018.26 1018.52 1018.72 1018.88 1019.01 1019.12 1019.22 1019.28 1019.32 1019.32 1019.27 1019.20 1019.11 1019.02 1018.94 1018.89 1018.87 1018.87 1018.87
1003.39 1003.18 1003.18 1003.47 1004.06 1004.92 1005.97 1007.14 1008.30 1009.39 1010.34 1011.13 1011.78 1012.33 1012.84 1013.35 1013.89 1014.50 1015.14 1015.80 1016.44 1017.03 1017.54 1017.96 1018.30 1018.57 1018.79 1018.99 1019.17 1019.35 1019.51 1019.63 1019.71 1019.72 1019.66 1019.55 1019.39 1019.21 1019.03 1018.88 1018.77 1018.70 1018.65
1002.94 1002.68 1002.65 1002.93 1003.53 1004.44 1005.57 1006.83 1008.10 1009.29 1010.33 1011.19 1011.88 1012.46 1012.97 1013.47 1014.01 1014.59 1015.22 1015.87 1016.50 1017.07 1017.58 1018.00 1018.34 1018.63 1018.88 1019.13 1019.37 1019.60 1019.82 1020.00 1020.12 1020.15 1020.09 1019.93 1019.72 1019.46 1019.19 1018.94 1018.73 1018.57 1018.46
1002.57 1002.28 1002.22 1002.48 1003.09 1004.03 1005.21 1006.53 1007.87 1009.13 1010.24 1011.15 1011.89 1012.50 1013.03 1013.54 1014.07 1014.65 1015.28 1015.92 1016.55 1017.12 1017.63 1018.06 1018.41 1018.72 1019.00 1019.28 1019.57 1019.85 1020.12 1020.34 1020.49 1020.54 1020.48 1020.31 1020.05 1019.73 1019.38 1019.05 1018.75 1018.50 1018.30
Thickness
5770 5769 5764 5761 5758 5756 5754 5752 5750 5749 5747 5745 5743 5741 5739 5737 5735 5734 5733 5732 5731 5731 5731 5732 5731 5730 5728 5725 5723 5721 5719 5718 5717 5717 5717 5716 5716 5716 5716 5716 5716 5717 5716
5772 5766 5761 5757 5754 5751 5749 5747 5745 5744 5742 5741 5739 5736 5735 5733 5731 5730 5729 5728 5727 5727 5727 5727 5728 5726 5724 5722 5719 5717 5715 5714 5714 5714 5714 5713 5712 5712 5712 5712 5713 5712 5712
5769 5763 5758 5754 5751 5748 5745 5742 5741 5739 5737 5736 5734 5732 5730 5728 5727 5726 5724 5723 5722 5722 5722 5722 5722 5720 5719 5717 5715 5713 5711 5711 5711 5712 5712 5711 5709 5709 5708 5708 5709 5709 5708
5766 5760 5756 5751 5747 5744 5740 5738 5736 5734 5733 5731 5729 5728 5726 5724 5722 5721 5719 5718 5717 5717 5716 5716 5715 5714 5713 5712 5710 5709 5708 5708 5708 5708 5709 5709 5707 5705 5705 5704 5704 5705 5704
5762 5757 5751 5747 5743 5739 5736 5733 5731 5729 5727 5726 5724 5723 5721 5719 5717 5715 5714 5713 5712 5711 5711 5710 5709 5708 5707 5706 5705 5705 5704 5704 5704 5705 5705 5705 5703 5701 5701 5700 5700 5700 5700
5758 5753 5746 5743 5739 5735 5732 5729 5726 5724 5722 5721 5719 5718 5716 5714 5712 5710 5709 5707 5706 5706 5706 5705 5704 5703 5702 5702 5701 5700 5700 5700 5701 5702 5702 5701 5699 5698 5697 5697 5697 5696 5696
5755 5748 5741 5738 5734 5730 5727 5725 5722 5720 5718 5716 5714 5713 5711 5710 5708 5706 5704 5702 5702 5701 5701 5700 5700 5699 5698 5697 5696 5695 5695 5695 5697 5699 5699 5696 5694 5693 5693 5693 5693 5692 5692
5751 5743 5736 5732 5730 5726 5723 5720 5718 5715 5713 5712 5710 5708 5706 5705 5703 5701 5700 5698 5697 5697 5696 5696 5695 5694 5693 5693 5692 5691 5691 5692 5694 5696 5695 5691 5689 5689 5689 5688 5688 5688 5687
5747 5740 5731 5728 5725 5723 5720 5717 5714 5711 5709 5707 5705 5704 5702 5701 5699 5697 5695 5694 5693 5692 5692 5691 5691 5690 5689 5689 5688 5688 5688 5689 5690 5691 5690 5686 5685 5684 5683 5683 5682 5682 5681
5742 5737 5730 5725 5722 5719 5717 5714 5711 5708 5705 5703 5701 5700 5698 5697 5695 5693 5691 5690 5689 5688 5688 5687 5687 5686 5686 5685 5685 5685 5685 5686 5686 5686 5683 5680 5679 5678 5677 5676 5675 5675 5674
5735 5733 5729 5725 5721 5718 5714 5711 5708 5705 5702 5700 5698 5696 5694 5693 5692 5690 5688 5686 5685 5684 5684 5683 5683 5682 5682 5681 5681 5681 5681 5682 5682 5680 5676 5674 5672 5671 5670 5668 5667 5666 5666
5726 5728 5728 5725 5721 5717 5714 5709 5705 5702 5699 5697 5695 5693 5692 5691 5690 5687 5685 5683 5682 5680 5680 5679 5679 5679 5678 5677 5676 5677 5676 5676 5675 5673 5668 5667 5666 5664 5662 5660 5659 5657 5657
5723 5724 5726 5724 5720 5717 5713 5708 5705 5701 5698 5695 5694 5691 5690 5689 5687 5683 5681 5678 5677 5676 5675 5675 5675 5674 5674 5673 5672 5671 5670 5669 5667 5664 5661 5660 5658 5657 5654 5652 5650 5649 5648
5723 5722 5722 5722 5718 5715 5712 5708 5705 5702 5698 5695 5694 5691 5689 5687 5684 5681 5679 5676 5675 5673 5672 5671 5670 5669 5669 5667 5666 5665 5663 5661 5659 5657 5654 5652 5650 5648 5646 5643 5642 5640 5639
5723 5723 5720 5718 5716 5713 5710 5707 5704 5701 5698 5695 5692 5690 5687 5684 5681 5679 5676 5674 5672 5670 5668 5666 5664 5663 5661 5660 5659 5657 5655 5654 5652 5649 5646 5643 5641 5638 5636 5634 5633 5631 5630
5721 5721 5720 5716 5714 5711 5708 5705 5702 5699 5696 5693 5690 5687 5684 5681 5677 5675 5672 5669 5667 5664 5662 5660 5658 5656 5654 5652 5651 5649 5648 5646 5644 5641 5638 5635 5632 5629 5626 5624 5623 5621 5620
5718 5719 5718 5716 5713 5709 5706 5702 5699 5697 5694 5691 5687 5683 5681 5677 5674 5670 5667 5663 5660 5658 5655 5652 5650 5648 5646 5644 5643 5642 5640 5638 5636 5634 5631 5627 5623 5620 5617 5615 5613 5612 5610
5715 5715 5716 5716 5712 5708 5704 5701 5697 5694 5691 5688 5684 5681 5677 5673 5669 5665 5660 5657 5654 5650 5647 5644 5641 5639 5636 5635 5634 5633 5632 5630 5628 5626 5623 5619 5615 5612 5608 5605 5603 5602 5600
5713 5712 5711 5712 5710 5706 5702 5698 5695 5690 5688 5685 5682 5678 5673 5669 5665 5660 5654 5650 5647 5642 5638 5636 5631 5630 5627 5625 5625 5625 5624 5622 5620 5617 5614 5611 5607 5604 5600 5597 5594 5591 5589
5711 5711 5709 5708 5706 5703 5698 5693 5689 5685 5682 5681 5678 5674 5670 5665 5660 5654 5648 5643 5639 5634 5629 5626 5622 5620 5617 5616 5617 5617 5616 5614 5612 5608 5605 5602 5599 5595 5591 5588 5584 5581 5578
5706 5706 5705 5703 5702 5698 5693 5688 5683 5678 5675 5673 5672 5669 5665 5659 5653 5648 5642 5636 5632 5626 5622 5618 5614 5610 5607 5606 5606 5605 5605 5605 5602 5599 5596 5593 5590 5586 5582 5578 5574 5570 5567
5699 5700 5700 5698 5697 5695 5691 5686 5680 5671 5666 5663 5662 5660 5657 5651 5646 5641 5635 5630 5625 5619 5614 5610 5607 5602 5598 5595 5593 5592 5591 5591 5590 5591 5586 5583 5579 5575 5571 5567 5563 5559 5555
5691 5692 5694 5693 5691 5689 5685 5678 5668 5660 5654 5650 5649 5647 5645 5642 5637 5633 5628 5622 5617 5612 5607 5602 5598 5594 5589 5585 5582 5579 5576 5574 5572 5576 5576 5573 5568 5563 5559 5555 5551 5546 5542
5684 5685 5686 5686 5685 5683 5679 5672 5665 5659 5652 5646 5642 5638 5635 5632 5628 5624 5619 5614 5609 5603 5598 5593 5589 5585 5581 5575 5572 5569 5565 5561 5556 5555 5558 5559 5557 5552 5547 5544 5539 5534 5529
5675 5676 5678 5677 5677 5676 5673 5668 5661 5654 5648 5639 5633 5628 5624 5621 5618 5615 5610 5605 5600 5594 5589 5584 5579 5575 5571 5566 5562 5558 5555 5550 5546 5539 5539 5540 5540 5537 5534 5530 5527 5524 5519
5662 5664 5666 5667 5667 5667 5664 5660 5654 5648 5640 5632 5626 5620 5615 5611 5609 5605 5601 5596 5591 5585 5580 5575 5570 5565 5561 5556 5551 5547 5542 5537 5533 5528 5524 5524 5523 5523 5520 5517 5514 5511 5507